Change the Weather History Date:

Monday, September 30, 2013

  Actual Average Record
Temperature  
Mean Temperature 70 °F -  
Max Temperature 73 °F 78 °F 100 °F (1953)
Min Temperature 66 °F 52 °F 31 °F (1924)
Cooling Degree Days 4    
Growing Degree Days 20 (Base 50)    
Moisture  
Dew Point 65 °F    
Average Humidity 84    
Maximum Humidity 94    
Minimum Humidity 73    
Precipitation  
Precipitation 0.00 in - - ()
Sea Level Pressure  
Sea Level Pressure 29.95 in    
Wind  
Wind Speed 3 mph (ESE)    
Max Wind Speed 9 mph    
Max Gust Speed -    
Visibility 7 miles    
Events      
Averages and records for this station are not official NWS values.
T = Trace of Precipitation, MM = Missing Value Source: NWS Daily Summary

Daily Weather History Graph

Daily Weather History Graph

Search for Another Location

Airport or City:

Trip Planner

Search our weather history database for the weather conditions in past years. The results will help you decide how hot, cold, wet, or windy it might be!

Date:

Astronomy

Sep. 30, 2013 Rise Set
Actual Time 6:55 AM CDT 6:45 PM CDT
Civil Twilight 6:30 AM CDT 7:11 PM CDT
Nautical Twilight 6:00 AM CDT 7:41 PM CDT
Astronomical Twilight 5:29 AM CDT 8:11 PM CDT
Moon 2:38 AM CDT (9/30) 4:11 PM CDT (9/30)
Length of Visible Light 12h 41m
Length of Day
11h 49m
Waning Crescent, 19% of the Moon is Illuminated
Sep 30
Waning Crescent
Oct 4
New
Oct 11
First Quarter
Oct 18
Full
Oct 26
Last Quarter

Hourly Weather History & Observations

Time (CDT) Temp. Dew Point Humidity Pressure Visibility Wind Dir Wind Speed Gust Speed Precip Events Conditions
12:53 AM 66.9 °F 64.0 °F 90% 29.96 in 4.0 mi Calm Calm - N/A   Overcast
1:53 AM 68.0 °F 64.0 °F 87% 29.95 in 4.0 mi Calm Calm - N/A   Overcast
2:53 AM 68.0 °F 64.0 °F 87% 29.94 in 8.0 mi Calm Calm - N/A   Overcast
3:53 AM 68.0 °F 64.0 °F 87% 29.94 in 8.0 mi Calm Calm - N/A   Overcast
4:53 AM 68.0 °F 64.0 °F 87% 29.95 in 7.0 mi Calm Calm - N/A   Overcast
5:38 AM 66.2 °F 64.4 °F 94% 29.95 in 2.0 mi Calm Calm - N/A   Overcast
5:53 AM 66.9 °F 64.0 °F 90% 29.95 in 3.0 mi Calm Calm - N/A   Overcast
6:17 AM 66.2 °F 64.4 °F 94% 29.96 in 6.0 mi Calm Calm - N/A   Overcast
6:53 AM 68.0 °F 64.0 °F 87% 29.96 in 6.0 mi Calm Calm - N/A   Overcast
7:26 AM 66.2 °F 64.4 °F 94% 29.97 in 2.5 mi ENE 3.5 mph - N/A   Overcast
7:39 AM 66.2 °F 64.4 °F 94% 29.97 in 1.0 mi East 3.5 mph - N/A   Overcast
7:53 AM 66.9 °F 64.0 °F 90% 29.96 in 0.8 mi East 3.5 mph - N/A   Overcast
8:12 AM 66.2 °F 64.4 °F 94% 29.97 in 1.5 mi East 3.5 mph - N/A   Overcast
8:20 AM 68.0 °F 64.4 °F 88% 29.97 in 3.0 mi East 3.5 mph - N/A   Overcast
8:39 AM 68.0 °F 64.4 °F 88% 29.98 in 5.0 mi East 3.5 mph - N/A   Overcast
8:53 AM 69.1 °F 64.0 °F 84% 29.97 in 6.0 mi East 4.6 mph - N/A   Haze
9:53 AM 70.0 °F 64.9 °F 84% 29.97 in 9.0 mi East 3.5 mph - N/A   Overcast
10:44 AM 71.6 °F 64.4 °F 78% 29.98 in 9.0 mi East 5.8 mph - N/A   Overcast
10:53 AM 70.0 °F 64.0 °F 81% 29.98 in 9.0 mi SE 5.8 mph - N/A   Overcast
11:43 AM 71.6 °F 64.4 °F 78% 29.98 in 10.0 mi SE 4.6 mph - N/A   Overcast
11:53 AM 72.0 °F 64.9 °F 78% 29.97 in 10.0 mi Variable 4.6 mph - N/A   Overcast
12:21 PM 73.4 °F 64.4 °F 73% 29.97 in 10.0 mi ESE 5.8 mph - N/A   Overcast
12:53 PM 73.0 °F 64.9 °F 76% 29.96 in 10.0 mi ESE 3.5 mph - N/A   Overcast
1:53 PM 72.0 °F 64.9 °F 78% 29.94 in 10.0 mi East 3.5 mph - N/A   Overcast
2:48 PM 73.4 °F 66.2 °F 78% 29.94 in 10.0 mi SE 4.6 mph - N/A   Overcast
2:53 PM 73.9 °F 66.0 °F 76% 29.93 in 10.0 mi SE 3.5 mph - N/A   Overcast
3:53 PM 73.9 °F 64.9 °F 73% 29.91 in 10.0 mi ESE 6.9 mph - N/A   Overcast
4:12 PM 73.4 °F 64.4 °F 73% 29.92 in 10.0 mi SE 9.2 mph - N/A   Overcast
4:25 PM 73.4 °F 66.2 °F 78% 29.92 in 10.0 mi SE 8.1 mph - N/A   Overcast
4:35 PM 73.4 °F 64.4 °F 73% 29.92 in 10.0 mi ESE 6.9 mph - N/A   Overcast
4:50 PM 71.6 °F 64.4 °F 78% 29.93 in 10.0 mi ESE 4.6 mph - N/A   Overcast
4:53 PM 72.0 °F 64.9 °F 78% 29.92 in 10.0 mi SE 5.8 mph - N/A   Overcast
5:53 PM 71.1 °F 64.9 °F 81% 29.93 in 10.0 mi SE 9.2 mph - N/A   Overcast
6:53 PM 69.1 °F 66.0 °F 90% 29.93 in 6.0 mi SE 4.6 mph - N/A   Overcast
7:00 PM 69.8 °F 66.2 °F 88% 29.94 in 7.0 mi SE 4.6 mph - N/A   Overcast
7:13 PM 69.8 °F 66.2 °F 88% 29.94 in 7.0 mi SE 4.6 mph - N/A   Overcast
7:24 PM 69.8 °F 66.2 °F 88% 29.94 in 7.0 mi ESE 4.6 mph - N/A   Overcast
7:29 PM 69.8 °F 66.2 °F 88% 29.94 in 7.0 mi ESE 3.5 mph - N/A   Overcast
7:53 PM 69.1 °F 64.9 °F 87% 29.94 in 6.0 mi Calm Calm - N/A   Overcast
8:53 PM 69.1 °F 64.9 °F 87% 29.95 in 8.0 mi SE 8.1 mph - N/A   Overcast
9:53 PM 69.1 °F 64.9 °F 87% 29.96 in 7.0 mi SE 5.8 mph - N/A   Overcast
10:53 PM 69.1 °F 64.9 °F 87% 29.96 in 6.0 mi ESE 4.6 mph - N/A   Overcast
11:23 PM 69.8 °F 64.4 °F 83% 29.97 in 5.0 mi SE 3.5 mph - N/A   Overcast
11:53 PM 68.0 °F 64.9 °F 90% 29.96 in 5.0 mi SE 4.6 mph - N/A   Overcast